Vertical_Velocity
-2 -1 -0 -1 -0 -1 -0 -1 -0 -1 -4 -3 -4 -4 -6 -6 -2 -2 -5 -4 -3 -2 5 -7 -3 -2 4 10 7 8 3 -4 2 -5 -1 -1 -6 -5 2 8 -7 -13 -5 -25 13 -3 -31 -6 3 3 -13 14 4 7
1 0 -1 -0 0 1 -0 1 1 -1 -2 -3 -5 -6 -5 -1 -0 -1 -0 -0 -5 -3 5 -3 -0 -6 1 5 1 1 -6 -0 3 -3 3 8 2 1 7 -3 8 -28 -32 -18 -15 29 4 4 9 1 7 6 -10 10
-1 -0 -1 1 -1 -0 -0 1 0 -1 -1 -3 -5 -6 -1 -3 -1 -2 -2 -2 -1 2 -3 2 1 0 -4 5 0 -1 7 -0 7 3 -13 -13 -8 -15 -8 -5 7 10 8 -21 2 -14 4 7 3 -1 11 -5 21 -11
-1 -1 -1 -2 -1 -0 -0 -1 -1 0 -1 -4 -4 -2 -1 1 -3 -3 -4 -3 -2 2 1 2 -4 -3 -7 -8 2 13 11 -2 3 1 -6 -10 3 -10 7 -8 -17 7 1 5 23 -16 -6 -3 -9 -1 4 6 -1 5
1 -1 -1 -0 -0 -1 0 1 -1 0 -3 -2 -3 -2 -1 2 1 -2 -1 -0 3 7 1 -1 4 1 -1 1 1 -3 10 1 -5 0 -2 2 4 6 8 1 -2 -5 7 -22 -0 9 20 14 8 8 4 -4 4 3
-2 2 1 -0 0 2 -2 1 1 -0 -3 -1 -2 -1 0 -2 -2 -3 -2 0 3 4 4 1 1 1 4 1 -0 -2 4 -3 -3 0 1 2 12 5 -12 2 -1 -16 6 3 2 -29 -14 -0 4 7 3 -2 -1 6
-0 -4 -1 -0 3 1 1 -0 2 1 -2 -0 -2 -2 1 -1 -0 -4 -1 1 1 1 1 1 6 6 0 -5 -3 -6 -6 -8 -0 -5 1 3 -9 -10 -3 -1 -20 -3 2 5 -3 -10 -1 3 -7 -1 6 7 5 5
-3 2 2 5 -1 -0 2 -1 2 -0 -1 -1 -2 -3 -1 -1 -3 -0 2 1 6 2 12 1 1 23 26 11 45 1 15 5 2 3 1 -3 -5 -2 -3 -16 12 2 7 8 -1 -14 7 -11 -11 -8 -0 -5 1 2
-1 -2 2 0 2 -0 1 0 1 0 1 -0 -2 -2 -1 -1 -1 -1 4 -3 13 5 3 2 1 0 1 0 4 -1 7 19 -3 -0 -1 -3 -4 -15 -15 5 1 3 -2 -1 0 -5 -1 1 7 -3 -2 7 5 -22
-1 -1 1 -0 0 1 -1 1 -0 0 2 -1 -1 -2 -1 -1 -0 0 2 -1 1 4 20 9 -0 -2 -0 1 -1 -1 -0 1 1 3 -4 -2 -6 7 -3 2 1 -1 1 3 -0 -5 -2 -2 -1 -3 0 12 10 15
0 0 -0 2 -1 -1 1 1 0 1 0 1 -1 -1 -1 -2 -0 -0 1 1 1 5 5 4 10 5 0 2 3 1 3 -1 1 1 -2 -4 2 -6 2 3 -0 -0 0 1 -5 0 -4 -2 -5 1 -1 3 6 -17
0 0 -1 3 -1 -2 1 1 1 1 -1 3 -0 -2 -1 -2 -2 -2 0 2 -0 4 2 2 6 5 3 2 5 -2 -1 2 -0 -5 -2 -2 -5 -2 1 1 -2 -1 -4 5 1 -4 4 1 -4 -2 2 1 8 9
-0 0 2 2 -2 -1 0 1 1 1 1 4 2 -2 -1 -1 -1 -2 -2 -1 1 1 3 4 14 8 19 10 -3 1 2 -1 2 1 -3 -1 -2 -1 -1 -1 1 -2 2 3 1 1 8 1 0 -2 -5 -3 -2 2
1 -1 6 2 -2 -1 -0 -0 1 0 0 4 6 -0 -3 -1 -0 -1 -2 -0 -2 -2 2 3 4 12 6 3 1 -2 -6 1 -5 3 -5 -4 -4 -3 3 3 -1 -2 2 2 6 7 2 -1 2 3 -6 -9 -2 -0
-0 1 3 1 -2 -1 -1 1 2 -0 -1 5 4 5 -2 -2 0 0 -2 -5 -3 -5 -1 -0 0 -0 7 -2 1 -1 0 -2 -3 -10 -1 -1 -1 -3 -1 4 1 -3 1 6 6 5 1 3 1 -4 -0 -3 2 6
-0 1 3 1 -0 -0 0 1 2 1 -2 3 3 3 -1 -4 -2 -3 -2 0 -3 -6 -3 -2 -0 1 1 -1 5 3 5 3 10 -1 3 1 3 -0 -4 2 6 0 2 5 9 5 3 5 -4 -5 3 4 7 9
0 -0 2 1 1 0 1 -0 3 1 1 4 2 2 3 -6 -4 3 2 -0 1 2 -0 -2 1 4 5 -2 -2 7 10 8 12 6 5 7 2 -4 10 5 10 10 1 8 14 14 0 3 -1 -1 3 6 3 5
-0 -0 0 0 -0 -1 -1 0 2 2 2 2 1 -0 1 3 -3 -8 0 -2 2 1 -3 -1 -5 -1 5 4 4 2 1 -0 1 -1 2 -0 -4 -8 11 22 -6 -2 -4 -3 2 11 5 -1 -7 -5 -0 -2 -9 1
1 1 -0 1 -0 -0 0 1 1 3 2 1 3 6 5 5 9 8 -6 -4 -2 -1 -1 -2 -2 5 -4 -3 2 2 0 -4 -7 0 -2 -3 -1 1 14 28 -1 -4 -3 -2 7 6 10 8 3 -2 -3 -4 -3 -3
1 1 -1 1 0 -1 -1 -0 2 2 2 2 3 5 5 2 -0 3 6 -1 -5 0 -1 -0 -1 -4 -3 -7 -3 1 -1 4 1 1 -1 -3 -7 -4 -2 7 5 -1 2 -10 -11 0 -16 -14 -3 -3 -3 -6 1 2
-1 -0 -1 0 -0 -1 -0 -0 1 0 1 3 1 1 2 2 1 -0 -1 -1 0 1 -2 -6 -11 -13 -8 -6 -4 -1 -0 -1 0 -0 2 0 1 5 -9 -12 -6 -1 -5 0 5 -1 -3 -0 -1 3 -2 3 -5 -5
1 -1 -0 -1 -1 0 1 1 1 -1 2 2 0 1 2 3 -0 -1 -0 -1 -2 -5 -6 -6 -1 3 6 5 0 -2 4 4 2 1 5 7 8 4 3 4 4 2 4 4 1 4 6 4 1 -2 -1 -3 0 2
1 1 -1 -1 0 1 1 0 1 1 2 1 0 -0 1 -0 -0 -0 -0 0 -0 -0 -1 -0 3 -1 -2 -7 -5 0 5 8 8 9 1 1 1 0 -1 1 0 -2 -1 1 0 -1 1 2 -0 0 0 -3 -2 -0
0 -1 -1 0 1 0 -0 1 1 3 4 0 -0 -1 -1 0 2 3 6 4 3 1 -1 -1 -3 -0 -3 -3 4 -6 -1 -2 -5 -2 3 -3 -9 -4 -5 1 0 -3 -2 -1 -1 -3 -3 -1 2 0 -1 -0 -1 -3
-0 -2 0 1 1 -0 -1 -1 1 2 2 -1 -0 1 -0 -0 1 2 2 0 2 2 3 2 -1 -6 -2 -2 -6 -4 3 9 2 1 -4 2 -0 2 0 -2 -0 3 2 2 -0 -0 0 -0 1 -1 -4 -4 -2 -1
-0 -0 0 1 0 -2 1 3 5 1 2 2 1 -1 3 2 3 -1 5 2 2 2 2 3 2 1 -1 0 3 6 1 -3 -2 -1 -1 -6 -4 -5 -0 0 -0 0 0 1 -1 -2 -1 -1 -1 -3 -4 -1 -1 -1
-1 -0 2 0 -0 1 2 -1 3 1 -1 -0 0 3 2 1 -3 -3 6 -1 0 2 4 1 1 2 2 0 -1 -2 -5 -5 -6 -2 3 1 2 -0 -7 2 -3 -3 3 -3 -5 0 1 0 -1 1 1 1 1 1
0 1 2 -0 -0 0 9 6 3 -0 -0 -1 2 2 2 -0 -1 1 3 5 4 8 4 3 0 2 0 0 -1 -1 -1 -1 1 1 1 1 1 -1 2 -1 -2 1 -2 -3 1 3 1 -0 1 1 1 1 3 3
0 1 1 0 0 -1 -0 -0 0 1 0 -0 0 2 -1 -2 -3 -1 2 5 -1 13 19 2 1 -2 -0 -2 -1 -1 1 1 -0 -1 -1 -1 -0 1 0 0 -2 1 -0 3 2 2 0 -2 -2 0 0 -0 -0 -1
-0 1 0 0 0 -1 1 1 -1 2 1 -0 -0 -2 -3 -0 4 2 -0 3 1 14 13 0 0 0 1 2 1 0 0 3 1 1 2 2 2 -0 -2 -3 -5 2 2 -0 -1 -2 -3 -3 -2 -2 -0 1 1 1
0 -0 -1 0 -0 -0 1 0 0 2 -0 2 1 1 -0 -2 1 2 1 0 2 1 -0 -1 1 1 1 1 8 18 2 -1 1 4 26 -2 -0 -1 0 1 3 5 8 4 1 -0 -0 0 2 -1 0 1 -0 -1
0 3 4 -2 0 1 1 0 -0 2 1 0 0 1 -0 -1 -1 0 2 1 -2 -3 2 3 -1 -0 1 1 1 2 1 3 0 5 14 11 8 11 19 18 19 8 -6 -6 -0 1 1 8 14 14 7 2 2 1
1 1 -1 -1 1 1 0 -0 1 4 7 0 -1 0 0 0 2 0 -0 -1 -2 -0 0 -0 -1 -2 -0 -0 -2 -2 -0 1 0 -1 0 1 1 -1 3 5 3 1 2 3 2 -1 -4 -4 -2 -4 -2 -1 -1 -1
Height
5748 5741 5735 5729 5723 5717 5711 5704 5698 5691 5683 5673 5662 5650 5639 5630 5622 5614 5607 5602 5599 5595 5593 5591 5592 5597 5608 5624 5643 5662 5678 5691 5704 5717 5731 5744 5757 5771 5782 5791 5799 5808 5818 5827 5838 5845 5855 5869 5877 5880 5892 5897 5904 5910
5739 5733 5726 5719 5713 5707 5701 5695 5689 5681 5672 5661 5650 5640 5630 5621 5613 5605 5599 5594 5590 5587 5588 5585 5586 5591 5601 5613 5631 5648 5664 5677 5690 5702 5717 5732 5747 5759 5773 5782 5790 5798 5810 5824 5832 5841 5852 5863 5870 5879 5888 5892 5896 5905
5731 5724 5717 5711 5705 5699 5694 5688 5681 5672 5662 5652 5643 5634 5625 5616 5607 5599 5592 5588 5585 5582 5581 5581 5583 5588 5597 5609 5624 5643 5656 5668 5677 5691 5703 5719 5733 5749 5761 5775 5785 5796 5803 5812 5824 5833 5846 5856 5863 5874 5882 5886 5895 5898
5721 5714 5708 5702 5696 5691 5686 5681 5673 5665 5654 5645 5637 5629 5621 5612 5604 5597 5591 5586 5583 5580 5579 5580 5581 5585 5593 5605 5620 5634 5646 5658 5669 5682 5696 5711 5729 5741 5754 5764 5774 5786 5794 5807 5814 5825 5837 5847 5856 5870 5877 5884 5888 5896
5712 5706 5700 5695 5690 5684 5678 5673 5667 5658 5648 5640 5633 5624 5616 5607 5599 5593 5588 5584 5579 5579 5577 5579 5581 5585 5593 5603 5616 5627 5638 5652 5664 5676 5690 5706 5720 5734 5747 5756 5767 5777 5789 5798 5808 5822 5831 5840 5852 5862 5869 5878 5885 5891
5703 5696 5691 5688 5683 5678 5673 5667 5661 5653 5644 5636 5629 5621 5612 5604 5598 5593 5589 5585 5581 5579 5576 5577 5578 5583 5591 5599 5611 5626 5639 5651 5663 5672 5687 5701 5715 5726 5736 5749 5761 5770 5783 5793 5802 5812 5820 5834 5845 5854 5864 5872 5878 5885
5696 5690 5685 5681 5676 5672 5668 5662 5656 5648 5640 5633 5627 5620 5611 5605 5600 5595 5593 5589 5585 5584 5584 5585 5585 5589 5595 5604 5618 5630 5644 5653 5662 5671 5684 5697 5707 5717 5731 5742 5749 5765 5777 5787 5797 5807 5815 5828 5836 5845 5857 5866 5872 5878
5687 5681 5678 5674 5670 5666 5663 5658 5651 5645 5637 5631 5626 5620 5613 5608 5604 5598 5596 5593 5593 5592 5591 5592 5595 5601 5608 5615 5622 5632 5641 5651 5660 5671 5681 5692 5701 5714 5725 5735 5749 5760 5772 5783 5791 5801 5810 5819 5827 5837 5847 5856 5863 5870
5680 5675 5672 5669 5665 5661 5658 5653 5648 5641 5634 5629 5624 5620 5615 5610 5606 5603 5601 5599 5599 5600 5596 5598 5602 5606 5612 5617 5624 5631 5639 5650 5659 5670 5680 5689 5698 5709 5720 5733 5744 5755 5766 5778 5787 5796 5804 5814 5823 5831 5840 5850 5857 5860
5674 5669 5666 5664 5660 5657 5654 5649 5644 5638 5632 5627 5622 5619 5616 5612 5608 5605 5603 5604 5604 5604 5605 5606 5608 5611 5615 5619 5626 5636 5641 5650 5659 5669 5677 5686 5696 5708 5718 5729 5740 5750 5762 5773 5782 5790 5798 5809 5817 5826 5835 5845 5852 5858
5667 5664 5662 5658 5656 5653 5651 5646 5641 5636 5630 5626 5622 5618 5616 5613 5610 5608 5606 5606 5607 5608 5608 5611 5613 5616 5620 5625 5631 5637 5644 5652 5659 5668 5674 5683 5694 5702 5713 5724 5735 5746 5758 5768 5777 5785 5793 5804 5812 5821 5829 5837 5844 5848
5661 5658 5657 5654 5652 5649 5647 5643 5638 5633 5628 5624 5621 5618 5615 5613 5611 5610 5608 5608 5608 5610 5611 5613 5615 5619 5623 5628 5633 5641 5646 5653 5658 5664 5672 5681 5690 5699 5710 5721 5732 5743 5753 5763 5772 5780 5791 5800 5808 5815 5824 5831 5839 5845
5655 5654 5653 5650 5648 5646 5643 5640 5636 5631 5626 5623 5620 5617 5616 5614 5612 5611 5610 5609 5609 5611 5612 5615 5619 5621 5628 5632 5636 5640 5645 5652 5658 5664 5671 5680 5688 5698 5709 5719 5730 5740 5749 5758 5767 5777 5788 5796 5803 5811 5818 5824 5831 5837
5650 5650 5649 5645 5644 5642 5640 5637 5633 5629 5625 5621 5618 5617 5615 5613 5612 5612 5611 5612 5611 5612 5615 5616 5619 5624 5627 5631 5636 5642 5645 5650 5656 5662 5668 5679 5687 5696 5707 5717 5728 5737 5746 5753 5764 5775 5784 5792 5799 5805 5811 5816 5821 5828
5646 5646 5644 5641 5641 5639 5637 5635 5631 5626 5622 5619 5617 5615 5615 5613 5612 5612 5613 5614 5616 5615 5616 5618 5620 5623 5627 5633 5637 5640 5643 5645 5653 5660 5669 5677 5686 5695 5706 5715 5725 5733 5742 5752 5763 5772 5780 5787 5793 5798 5802 5807 5812 5820
5641 5641 5640 5638 5638 5637 5635 5632 5628 5625 5620 5617 5614 5613 5614 5614 5612 5612 5613 5613 5614 5617 5618 5619 5620 5624 5628 5632 5635 5637 5641 5645 5654 5660 5669 5677 5686 5694 5703 5712 5722 5730 5738 5748 5759 5768 5775 5782 5787 5792 5798 5801 5807 5814
5637 5637 5636 5635 5635 5634 5633 5630 5626 5622 5618 5614 5612 5611 5611 5611 5612 5611 5611 5611 5612 5614 5616 5618 5620 5623 5627 5632 5635 5636 5640 5649 5653 5660 5669 5677 5685 5692 5702 5709 5719 5726 5734 5744 5754 5763 5770 5776 5782 5787 5792 5797 5802 5807
5634 5633 5631 5632 5632 5631 5630 5628 5625 5621 5618 5615 5611 5610 5609 5609 5609 5610 5609 5610 5611 5612 5615 5620 5624 5625 5628 5632 5635 5639 5644 5646 5652 5660 5668 5675 5681 5686 5695 5703 5713 5720 5725 5734 5745 5755 5762 5768 5773 5779 5785 5790 5794 5798
5630 5629 5629 5630 5630 5630 5629 5627 5623 5619 5617 5615 5612 5610 5608 5607 5606 5606 5608 5609 5611 5612 5614 5616 5620 5628 5632 5632 5636 5639 5642 5647 5651 5658 5664 5670 5676 5683 5688 5691 5706 5715 5720 5729 5739 5748 5756 5762 5767 5773 5779 5785 5788 5792
5626 5626 5627 5628 5628 5628 5627 5625 5621 5618 5617 5614 5612 5609 5607 5605 5605 5604 5603 5606 5609 5609 5613 5618 5621 5622 5625 5629 5632 5637 5640 5645 5651 5657 5662 5668 5674 5678 5687 5689 5701 5710 5716 5724 5733 5741 5747 5755 5759 5765 5771 5776 5779 5782
5621 5623 5624 5626 5626 5626 5625 5623 5621 5619 5616 5613 5610 5607 5605 5603 5603 5604 5604 5603 5603 5604 5607 5613 5617 5618 5620 5623 5626 5632 5637 5640 5646 5652 5660 5666 5671 5675 5683 5690 5698 5704 5709 5717 5726 5734 5740 5745 5750 5755 5761 5765 5770 5773
5618 5620 5623 5624 5624 5624 5623 5622 5621 5619 5616 5613 5610 5608 5606 5604 5603 5602 5603 5604 5605 5606 5606 5608 5610 5614 5618 5622 5626 5628 5632 5636 5641 5647 5654 5662 5669 5673 5679 5685 5691 5699 5708 5714 5720 5725 5730 5736 5741 5745 5751 5755 5758 5761
5617 5619 5621 5623 5623 5623 5624 5622 5621 5619 5616 5614 5612 5609 5607 5604 5602 5601 5600 5600 5600 5599 5600 5602 5603 5605 5608 5612 5620 5626 5631 5635 5639 5645 5653 5660 5665 5670 5675 5681 5687 5693 5698 5703 5708 5713 5718 5724 5729 5733 5737 5741 5744 5746
5618 5620 5621 5622 5622 5623 5623 5623 5621 5619 5617 5615 5614 5611 5608 5606 5604 5602 5600 5600 5597 5594 5592 5590 5591 5595 5600 5605 5612 5619 5623 5628 5637 5643 5648 5654 5658 5663 5669 5674 5680 5686 5691 5696 5701 5704 5708 5712 5716 5719 5723 5726 5729 5732
5619 5621 5622 5622 5622 5623 5624 5623 5622 5621 5619 5618 5616 5615 5611 5609 5607 5604 5602 5600 5595 5592 5588 5584 5585 5586 5590 5596 5603 5610 5613 5619 5627 5635 5643 5650 5655 5659 5664 5670 5676 5680 5685 5690 5694 5697 5700 5704 5707 5710 5714 5717 5719 5721
5619 5621 5622 5622 5623 5625 5625 5625 5624 5623 5622 5621 5619 5617 5615 5613 5611 5607 5603 5601 5597 5592 5589 5587 5585 5585 5587 5592 5599 5606 5613 5620 5626 5633 5639 5645 5650 5656 5661 5663 5667 5673 5677 5681 5684 5688 5693 5696 5699 5701 5704 5706 5707 5709
5620 5621 5622 5623 5625 5626 5626 5626 5626 5625 5624 5623 5622 5620 5618 5616 5612 5609 5607 5605 5603 5598 5595 5593 5593 5594 5597 5601 5606 5612 5617 5621 5624 5629 5635 5640 5645 5651 5655 5657 5661 5666 5669 5673 5677 5681 5684 5687 5689 5690 5691 5692 5694 5696
5621 5623 5624 5625 5626 5627 5628 5628 5627 5627 5626 5625 5625 5623 5621 5619 5616 5614 5612 5610 5608 5605 5604 5603 5603 5604 5606 5609 5612 5615 5619 5623 5626 5630 5634 5638 5642 5645 5648 5653 5657 5660 5663 5667 5671 5672 5674 5676 5678 5679 5681 5683 5684 5685
5623 5624 5625 5626 5627 5629 5629 5630 5630 5629 5629 5629 5628 5627 5625 5623 5622 5620 5617 5615 5615 5613 5614 5612 5612 5611 5612 5614 5617 5620 5623 5625 5628 5631 5634 5637 5640 5643 5646 5649 5652 5655 5658 5661 5664 5665 5666 5669 5671 5672 5673 5674 5675 5675
5624 5625 5626 5627 5629 5629 5630 5631 5632 5632 5632 5632 5631 5631 5630 5630 5629 5627 5624 5622 5620 5621 5621 5621 5620 5620 5620 5622 5623 5625 5627 5629 5630 5632 5634 5636 5639 5641 5645 5647 5650 5653 5656 5658 5659 5661 5663 5664 5665 5665 5666 5666 5667 5667
5625 5627 5628 5629 5630 5632 5632 5633 5634 5635 5635 5636 5635 5635 5635 5635 5635 5633 5631 5629 5627 5628 5628 5628 5627 5627 5627 5627 5627 5629 5631 5633 5634 5633 5633 5635 5640 5642 5645 5646 5649 5651 5654 5655 5656 5657 5657 5657 5658 5659 5660 5661 5661 5661
5627 5627 5628 5630 5632 5633 5634 5635 5636 5637 5638 5639 5639 5640 5640 5640 5639 5639 5639 5638 5636 5635 5635 5634 5634 5634 5632 5632 5632 5634 5635 5635 5636 5636 5638 5640 5642 5643 5644 5645 5647 5650 5652 5653 5652 5652 5652 5654 5654 5653 5654 5654 5655 5655
5629 5630 5631 5631 5633 5634 5636 5637 5638 5639 5640 5642 5643 5643 5643 5643 5644 5644 5643 5642 5642 5641 5641 5640 5640 5640 5640 5640 5641 5641 5641 5642 5642 5642 5643 5644 5644 5646 5646 5646 5648 5649 5650 5650 5650 5650 5650 5651 5651 5652 5651 5652 5652 5652